Location: Beaver Brook Station
(42.3793°N, 71.2203°W)
Time: 05:45:48
(UTC+00:00)

Cosmos 1697 Rocket - Pass Details

Date: 29 October 2020
Orbit: 831 x 845 km, 71.0° (Epoch: 23 November)

Event Time Altitude Azimuth Distance (km) Brightness Sun altitude
Rises 22:10:08 0° 172° (S) 3,361 5.9 -5.9°
Reaches altitude 10° 22:12:49 10° 162° (SSE) 2,433 5.1 -6.4°
Maximum altitude 22:17:34 29° 103° (ESE) 1,475 3.5 -7.3°
Drops below altitude 10° 22:22:21 10° 45° (NE) 2,454 4.6 -8.2°
Sets 22:25:04 0° 35° (NE) 3,395 5.4 -8.6°
Enters shadow 22:25:08 - 35° (NE) 3,418 5.4 -8.7°
